Location: Munkebjergskolens Observatorium
(55.3864°N, 10.3987°E)
Time: 10:39:10
(UTC+01:00)

COSMOS 2251 DEB - Pass Details

Date: 15 December 2023
Orbit: 609 x 851 km, 74.0° (Epoch: 02 March)

Event Time Altitude Azimuth Distance (km) Brightness Sun altitude
Exits shadow 06:46:24 10° 336° (NNW) 2,520 ? -14.5°
Reaches altitude 10° 06:46:30 10° 336° (NNW) 2,482 ? -14.5°
Maximum altitude 06:52:11 61° 57° (ENE) 968 ? -13.7°
Drops below altitude 10° 06:57:51 10° 138° (SE) 2,476 ? -12.9°
Sets 07:00:19 0° 141° (SE) 3,393 ? -12.6°
